Location: D�derode
(51.8092°N, 10.1065°E)
Time: 05:13:49
(UTC+00:00)

Cosmos 1939 Rocket - Pass Details

Date: 01 December 2020
Orbit: 532 x 584 km, 97.4° (Epoch: 23 January)

Event Time Altitude Azimuth Distance (km) Brightness Sun altitude
Rises 15:57:47 0° 122° (ESE) 2,690 6.0 -6.8°
Reaches altitude 10° 16:00:24 10° 103° (ESE) 1,811 5.0 -7.2°
Maximum altitude 16:03:02 18° 60° (ENE) 1,396 4.2 -7.5°
Drops below altitude 10° 16:05:43 10° 17° (NNE) 1,839 5.1 -7.9°
Sets 16:08:24 0° 359° (N) 2,750 6.1 -8.3°
